This is the latest recevied weather packets stored in our database for station/object BAGASKAR. If no packets are shown the sender has not sent any weather packets the latest 10 day(s).
| Time | Temp. | Humidity | Pressure | Rain* | Wind** | Luminosity | Snow |
|---|---|---|---|---|---|---|---|
| 1777967236 | 7.78° C | 100% | 1002.2 hPa | - | - | - | - |
| 1777966037 | 7.78° C | 100% | 1002 hPa | - | - | - | - |
| 1777964837 | 7.78° C | 100% | 1001.8 hPa | - | - | - | - |
| 1777963636 | 7.78° C | 100% | 1001.7 hPa | - | - | - | - |
| 1777962436 | 7.78° C | 100% | 1001.6 hPa | - | - | - | - |
| 1777961237 | 7.78° C | 100% | 1001.3 hPa | - | - | - | - |
| 1777960036 | 7.22° C | 100% | 1001.4 hPa | - | - | - | - |
| 1777958836 | 6.67° C | 100% | 1001.4 hPa | - | - | - | - |
| 1777957636 | 6.11° C | 100% | 1001.4 hPa | - | - | - | - |
| 1777956436 | 6.11° C | 100% | 1001.4 hPa | - | - | - | - |
| 1777955236 | 5.56° C | 100% | 1001.4 hPa | - | - | - | - |
| 1777954036 | 5.56° C | 100% | 1001.4 hPa | - | - | - | - |
| 1777952836 | 5.56° C | 100% | 1001.4 hPa | - | - | - | - |
| 1777951636 | 5.56° C | 100% | 1001.5 hPa | - | - | - | - |
| 1777950436 | 5° C | 100% | 1001.7 hPa | - | - | - | - |
| 1777949236 | 4.44° C | 100% | 1001.8 hPa | - | - | - | - |
| 1777948036 | 3.33° C | 100% | 1002 hPa | - | - | - | - |
| 1777946836 | 3.89° C | 100% | 1002.1 hPa | - | - | - | - |
| 1777945635 | 4.44° C | 100% | 1002.4 hPa | - | - | - | - |
| 1777944435 | 4.44° C | 100% | 1002.4 hPa | - | - | - | - |
| 1777943236 | 4.44° C | 100% | 1002.6 hPa | - | - | - | - |
| 1777942035 | 4.44° C | 100% | 1002.8 hPa | - | - | - | - |
| 1777940835 | 4.44° C | 100% | 1002.7 hPa | - | - | - | - |
| 1777939635 | 4.44° C | 100% | 1002.8 hPa | - | - | - | - |
| 1777938436 | 5° C | 100% | 1003 hPa | - | - | - | - |
* Rain since midnight (hover to see other rain measurements)
** Current wind speed in m/s (hover to see current wind gust speed)